Location: Julian California
(33.0790°N, 116.6010°W)
Time: 13:48:56
(UTC-07:00)

Cosmos 1697 Rocket - Pass Details

Date: 21 March 2019
Orbit: 834 x 842 km, 71.0° (Epoch: 23 April)

Event Time Altitude Azimuth Distance (km) Brightness Sun altitude
Rises 05:32:49 0° 349° (N) 3,388 5.9 -16.7°
Reaches altitude 10° 05:35:29 10° 358° (N) 2,449 5.2 -16.1°
Maximum altitude 05:40:36 35° 64° (ENE) 1,315 4.4 -15.1°
Drops below altitude 10° 05:45:40 10° 129° (SE) 2,433 5.7 -14.0°
Sets 05:48:18 0° 138° (SE) 3,363 6.3 -13.5°
